Location: Middelsbur
(53.6609°N, 7.5020°E)
Time: 00:16:49
(UTC+00:00)

IRIDIUM 114 - Pass Details

Date: 06 July 2020
Orbit: 776 x 779 km, 86.4° (Epoch: 03 August)

Event Time Altitude Azimuth Distance (km) Brightness Sun altitude
Exits shadow 22:59:02 20° 176° (S) 1,763 5.5 -13.4°
Maximum altitude 23:02:46 79° 92° (E) 800 4.3 -13.5°
Drops below altitude 10° 23:08:01 10° 7° (N) 2,344 8.2 -13.6°
Sets 23:10:23 0° 6° (N) 3,276 9.3 -13.6°
